Torna al catalogo

STARLINK-4288

AttivoComunicazioniVLEO
NORAD 53005·PAYLOAD·🇺🇸 United States

Lanciato Jul 7, 2022 da Cape Canaveral Space Force Station

Loading…

Prossimi Passaggi (prossime 24 ore)

TLE

AggiornatoSource: CelesTrak SupGP

Epoca: Sep 14, 2026, 14:25 UTC

1 53005C 22076V   26257.60118056  .00045425  00000+0  13421-2 0  2578
2 53005  53.1582 311.6547 0001149  56.5463 316.9814 15.34366932    15

Traccia STARLINK-4288 in tempo reale con AllMySat

Download on the App Store